Flag for Italy Weather past 2 weeks in Bolzano, Italy

Now
55 °F

Sunny.


Feels Like: 55 °F
Forecast: 22 / 51 °F
Wind: 3 mph from North

Location: Bolzano

Current Time: Mar 6, 2015 at 1:43:22 PM

Latest Report: Mar 6, 2015 at 12:50 PM


Visibility: 10 mi

Pressure: 30.39 "Hg

Humidity: 19%

Dew point: 14 °F

Location of BolzanoLocation

Historic Weather in Bolzano — Graph

°F

Bolzano temperature yesterday

Maximum temperature yesterday: 52 °F (at 11:50 AM)
Minimum temperature yesterday: 46 °F (at 6:50 AM)
Average temperature yesterday: 49 °F

Past Weeks' High & Low Weather Summary

 TemperatureHumidityPressure
High61 °F (Mar 3, 2:50 PM)100% (Feb 21, 7:50 PM)30.48 "Hg (Feb 21, 7:50 PM)
Low25 °F (Feb 20, 7:50 AM)17% (Mar 3, 4:50 PM)29.56 "Hg (Feb 22, 4:50 PM)
Average46 °F55%29.98 "Hg
* Reported Feb 19 11:50 AM — Mar 6 11:50 AM, Bolzano, Weather by CustomWeather, © 2015

Note: Actual official high and low records may vary slightly from our data, if they occured in-between our weather recording intervals... More about our weather records

Advertising

Bolzano weather history for previous 24 hours

 ConditionsComfort  
Time TempWeatherWind HumidityBarometerVisibility
11:50 AM
Fri, Mar 6
54 °FSunny.3 mph21%30.42 "Hg10 mi
10:50 AM52 °FSunny.3 mph22%30.42 "Hg10 mi
9:50 AM46 °FSunny.3 mph25%30.45 "Hg10 mi
8:50 AM45 °FSunny.3 mph29%30.48 "Hg10 mi
7:50 AM45 °FSunny.6 mph23%30.45 "Hg10 mi
6:50 AM41 °FSunny.10 mph28%30.42 "Hg10 mi
10:50 PM
Thu, Mar 5
46 °FClear.20 mph21%30.36 "Hg10 mi
9:50 PM46 °FClear.22 mph21%30.33 "Hg10 mi
8:50 PM46 °FClear.22 mph23%30.33 "Hg10 mi
7:50 PM48 °FClear.18 mph21%30.27 "Hg10 mi
6:50 PM48 °FClear.16 mph21%30.27 "Hg10 mi
5:50 PM48 °FPassing clouds.23 mph21%30.27 "HgN/A
4:50 PM50 °FPassing clouds.23 mph22%30.27 "HgN/A
3:50 PM50 °FPassing clouds.20 mph22%30.24 "HgN/A
2:50 PM52 °FPassing clouds.21 mph19%30.24 "HgN/A
1:50 PM52 °FPassing clouds.24 mph19%30.21 "HgN/A
Weather by CustomWeather, © 2015

See weather overviewHow to use our weather pages